Le nostre stazioni meteo in Italia

Pubblicità
Il mio iltempo24.it
Ferrara, Italia (16133): Temperatura & dewpoint: 07.12.2018 22:00:00 - 13.12.2018 22:00:00 (CET)Ferrara, Italia (16133): velocità del vento: 07.12.2018 22:00:00 - 13.12.2018 22:00:00 (CET)Ferrara, Italia (16133): direzione del vento: 07.12.2018 22:00:00 - 13.12.2018 22:00:00 (CET)Ferrara, Italia (16133): reduced air pressure: 07.12.2018 22:00:00 - 13.12.2018 22:00:00 (CET)Ferrara, Italia (16133): precipitazioni: 07.12.2018 22:00:00 - 13.12.2018 22:00:00 (CET)
Data & Tempo tt [°C] td [°C] ff [km/h] ff [kn] dd ppp [hPa] rr [mm]
13.12.2018 22:00:00 3,7 1,5 - - - 1015,6 -
13.12.2018 21:00:00 4,3 2,1 - - - 1015,7 -
13.12.2018 20:00:00 4,5 2,5 - - - 1015,8 -
13.12.2018 19:00:00 4,5 2,3 - - - 1015,7 0,0
13.12.2018 18:00:00 4,6 1,9 - - - 1015,5 -
13.12.2018 17:00:00 4,5 2,5 13 7 NNE 1015,5 -
13.12.2018 16:00:00 4,2 2,7 - - - 1015,8 -
13.12.2018 15:00:00 3,6 2,1 - - - 1016,0 -
13.12.2018 14:00:00 3,1 1,6 13 7 N 1016,5 -
13.12.2018 13:00:00 3,1 1,6 4 2 N 1017,0 0,0
13.12.2018 12:00:00 2,7 1,2 5 3 NNE 1017,2 -
13.12.2018 11:00:00 2,0 0,5 - - - 1016,9 -
13.12.2018 10:00:00 1,5 -0,6 - - - 1016,5 -
13.12.2018 09:00:00 1,3 -1,1 - - - 1016,5 -
13.12.2018 08:00:00 0,8 -1,8 - - - 1016,8 -
13.12.2018 07:00:00 1,2 -2,1 - - - 1017,2 0,0
13.12.2018 06:00:00 2,2 -2,2 - - - 1017,4 -
13.12.2018 05:00:00 2,4 -2,4 - - - 1017,9 -
13.12.2018 04:00:00 2,7 -1,9 - - - 1018,1 -
13.12.2018 03:00:00 2,1 -0,4 - - - 1018,6 -
13.12.2018 02:00:00 1,8 0,3 - - - 1018,9 -
13.12.2018 01:00:00 0,6 -0,9 2 1 N 1019,4 0,0
13.12.2018 00:00:00 -0,3 -1,8 0 0 N 1019,5 -
12.12.2018 23:00:00 -0,5 -2,1 2 1 NNE 1019,4 -
12.12.2018 22:00:00 0,0 -2,4 2 1 SE 1019,7 -
12.12.2018 21:00:00 1,2 -2,3 2 1 NE 1019,6 -
12.12.2018 20:00:00 3,0 -1,8 4 2 O 1019,5 -
12.12.2018 19:00:00 4,5 -1,8 2 1 OSO 1019,4 0,0
12.12.2018 18:00:00 6,9 -0,7 5 3 SSO 1019,8 -
12.12.2018 17:00:00 8,8 -0,4 8 4 SSO 1019,7 -
12.12.2018 16:00:00 8,4 -4,6 2 1 E 1020,0 -
12.12.2018 15:00:00 8,2 -2,9 4 2 ENE 1020,6 -
12.12.2018 14:00:00 6,6 -1,2 4 2 NNO 1021,0 -
12.12.2018 13:00:00 4,8 -0,3 5 3 OSO 1021,6 0,0
12.12.2018 12:00:00 1,1 -2,4 - - - 1021,4 -
12.12.2018 11:00:00 -2,1 -3,5 2 1 OSO 1021,1 -
12.12.2018 10:00:00 -3,1 -4,5 0 0 N 1020,7 -
12.12.2018 09:00:00 -2,6 -4,0 2 1 SO 1020,5 -
12.12.2018 08:00:00 -2,0 -3,4 2 1 OSO 1020,2 -
12.12.2018 07:00:00 -2,3 -3,7 2 1 O 1020,2 0,0
12.12.2018 06:00:00 -1,2 -2,7 4 2 O 1020,4 -
12.12.2018 05:00:00 -1,2 -2,7 0 0 N 1020,4 -
12.12.2018 04:00:00 -1,1 -2,6 4 2 O 1020,3 -
12.12.2018 03:00:00 -0,5 -2,0 4 2 O 1020,2 -
12.12.2018 02:00:00 -0,8 -2,3 0 0 N 1020,4 -
12.12.2018 01:00:00 -0,2 -1,7 2 1 O 1020,3 0,0
12.12.2018 00:00:00 1,2 -0,3 0 0 N 1020,4 -
11.12.2018 23:00:00 0,9 -0,6 0 0 N 1019,9 -
11.12.2018 22:00:00 1,7 -0,1 0 0 N 1019,8 -
11.12.2018 21:00:00 2,8 -0,9 0 0 N 1019,6 -
11.12.2018 20:00:00 4,5 -1,0 0 0 N 1019,3 -
11.12.2018 19:00:00 7,7 -0,1 - - - 1019,3 0,0
11.12.2018 18:00:00 10,1 0,9 - - - 1019,1 -
11.12.2018 17:00:00 11,8 1,3 5 3 OSO 1019,0 -
11.12.2018 16:00:00 10,8 2,3 8 4 O 1019,0 -
11.12.2018 15:00:00 9,3 2,1 13 7 O 1019,3 -
11.12.2018 14:00:00 8,2 3,2 8 4 OSO 1019,7 -
11.12.2018 13:00:00 5,9 2,5 8 4 SO 1019,7 0,0
11.12.2018 12:00:00 3,1 1,1 - - - 1019,6 -
11.12.2018 11:00:00 1,0 -1,0 - - - 1019,4 -
11.12.2018 10:00:00 1,9 -0,6 - - - 1018,5 -
11.12.2018 09:00:00 1,8 -1,0 - - - 1018,1 -
11.12.2018 08:00:00 1,8 -0,8 - - - 1017,7 -
11.12.2018 07:00:00 1,3 -1,5 - - - 1017,4 0,0
11.12.2018 06:00:00 0,7 -1,2 5 3 SSO 1017,3 -
11.12.2018 05:00:00 1,2 -2,1 2 1 ONO 1017,6 -
11.12.2018 04:00:00 1,3 -1,8 0 0 N 1017,4 -
11.12.2018 03:00:00 2,7 -0,3 - - - 1017,4 -
11.12.2018 02:00:00 1,6 0,0 9 5 O 1017,7 -
11.12.2018 01:00:00 1,9 0,1 - - - 1017,9 0,0
11.12.2018 00:00:00 2,2 -0,9 - - - 1017,5 -
10.12.2018 23:00:00 4,5 0,6 - - - 1017,3 -
10.12.2018 22:00:00 4,9 0,8 - - - 1017,1 -
10.12.2018 21:00:00 6,3 1,8 - - - 1016,6 -
10.12.2018 20:00:00 7,6 2,4 - - - 1016,5 -
10.12.2018 19:00:00 9,5 3,0 4 2 SO 1016,3 0,0
10.12.2018 18:00:00 11,0 3,9 11 6 O 1016,1 -
10.12.2018 17:00:00 11,5 4,4 11 6 E 1016,0 -
10.12.2018 16:00:00 10,2 4,5 11 6 O 1015,9 -
10.12.2018 15:00:00 9,7 2,7 16 9 O 1015,8 -
10.12.2018 14:00:00 9,8 3,7 16 9 O 1015,5 -
10.12.2018 13:00:00 9,5 3,6 21 11 O 1015,5 0,0
10.12.2018 12:00:00 8,1 3,3 - - - 1015,0 -
10.12.2018 11:00:00 6,2 3,0 - - - 1013,9 -
10.12.2018 10:00:00 4,9 2,4 - - - 1013,1 -
10.12.2018 09:00:00 5,9 2,7 - - - 1012,5 -
10.12.2018 08:00:00 6,5 3,3 - - - 1012,0 -
10.12.2018 07:00:00 5,4 2,9 - - - 1012,1 0,0
10.12.2018 06:00:00 5,5 2,6 - - - 1011,6 -
10.12.2018 05:00:00 5,2 2,9 - - - 1011,0 -
10.12.2018 04:00:00 5,7 3,2 - - - 1010,7 -
10.12.2018 03:00:00 5,0 2,1 8 4 O 1010,2 -
10.12.2018 02:00:00 5,7 2,7 - - - 1010,1 -
10.12.2018 01:00:00 5,1 3,6 11 6 O 1009,5 0,0
10.12.2018 00:00:00 3,8 2,4 - - - 1009,3 -
09.12.2018 23:00:00 2,8 1,3 - - - 1009,1 -
09.12.2018 22:00:00 2,5 1,0 - - - 1009,0 -
09.12.2018 21:00:00 3,7 2,2 - - - 1008,5 -
09.12.2018 20:00:00 4,2 2,7 - - - 1008,5 -
09.12.2018 19:00:00 5,2 3,7 - - - 1008,3 0,0
09.12.2018 18:00:00 5,9 4,4 - - - 1008,5 -
09.12.2018 17:00:00 6,7 5,2 5 3 O 1007,9 -
09.12.2018 16:00:00 10,6 8,7 9 5 O 1007,7 -
09.12.2018 15:00:00 9,2 7,8 5 3 O 1006,9 -
09.12.2018 14:00:00 7,6 6,2 2 1 O 1007,2 -
09.12.2018 13:00:00 5,7 4,3 2 1 NE 1007,5 0,0
09.12.2018 12:00:00 4,7 3,3 - - - 1007,7 -
09.12.2018 11:00:00 3,9 2,5 - - - 1007,7 -
09.12.2018 10:00:00 2,0 0,5 - - - 1008,2 -
09.12.2018 09:00:00 0,8 -0,7 - - - 1009,1 -
09.12.2018 08:00:00 0,3 -1,2 - - - 1010,2 -
09.12.2018 07:00:00 0,4 -1,1 - - - 1011,2 -
09.12.2018 06:00:00 1,2 -0,3 - - - 1012,4 -
09.12.2018 05:00:00 0,9 -0,6 - - - 1013,7 -
09.12.2018 04:00:00 1,5 0,0 - - - 1014,1 -
09.12.2018 03:00:00 2,3 0,8 - - - 1014,3 -
09.12.2018 02:00:00 2,0 0,5 - - - 1015,2 -
09.12.2018 01:00:00 2,6 1,1 - - - 1015,4 -
09.12.2018 00:00:00 3,3 1,8 - - - 1015,8 -
08.12.2018 23:00:00 4,5 3,0 - - - 1016,1 -
08.12.2018 22:00:00 4,9 3,4 - - - 1016,0 -
08.12.2018 21:00:00 6,1 4,6 - - - 1015,7 -
08.12.2018 20:00:00 7,1 4,9 - - - 1015,5 -
08.12.2018 19:00:00 8,6 5,3 - - - 1015,5 -
08.12.2018 18:00:00 10,8 6,9 2 1 SE 1015,1 -
08.12.2018 17:00:00 11,6 7,1 8 4 SSO 1014,6 -
08.12.2018 16:00:00 11,5 7,4 4 2 S 1014,4 -
08.12.2018 15:00:00 10,9 7,4 9 5 OSO 1014,3 -
08.12.2018 14:00:00 9,8 7,9 13 7 O 1013,9 -
08.12.2018 13:00:00 7,9 6,3 11 6 ONO 1013,5 -
08.12.2018 12:00:00 7,1 5,5 - - - 1013,4 -
08.12.2018 11:00:00 6,8 5,4 9 5 O 1012,8 -
08.12.2018 10:00:00 6,6 5,2 9 5 O 1011,3 -
08.12.2018 09:00:00 6,8 5,4 13 7 O 1010,7 -
08.12.2018 08:00:00 6,9 5,5 5 3 N 1009,1 -
08.12.2018 07:00:00 6,9 5,5 5 3 ONO 1009,8 -
08.12.2018 06:00:00 6,9 5,5 8 4 NNE 1008,3 -
08.12.2018 05:00:00 6,7 5,3 - - - 1009,5 -
08.12.2018 04:00:00 6,5 5,0 - - - 1009,4 -
08.12.2018 03:00:00 6,3 4,8 - - - 1010,6 -
08.12.2018 02:00:00 6,2 4,7 - - - 1012,9 -
08.12.2018 01:00:00 5,8 4,3 - - - 1014,0 0,0
08.12.2018 00:00:00 6,2 4,7 - - - 1014,8 -
07.12.2018 23:00:00 6,0 4,5 - - - 1016,3 -
07.12.2018 22:00:00 5,6 4,1 - - - 1016,8 -

tt = Temperatura
td = dewpoint
ff = velocità del vento
dd = direzione del vento
ppp = reduced air pressure
rr = precipitazioni

Stazioni seguenti

WeatherPro
AMSI
MeteoEarth